Theta_e
327 330 328 328 331 330 324 327 326 328 328 327 329 327 328 332 336 341 339 340 340 336 332 321 315 313 325 330 330 332 327 325 323 320 317 316 317 317 319 322 324 326 328 319 312 310 310 311 312
326 329 329 330 332 332 324 324 326 327 327 327 328 327 328 331 334 337 341 340 339 333 329 320 316 313 320 330 333 332 328 325 322 322 319 315 315 316 318 321 325 326 327 327 324 311 310 310 314
326 329 329 333 333 331 323 323 325 327 328 328 329 329 329 331 334 338 340 341 338 333 323 320 316 311 313 323 326 326 327 325 321 315 314 313 313 313 314 317 325 328 326 324 326 311 310 311 313
325 332 329 330 332 328 323 322 325 327 327 326 327 327 331 332 334 338 340 340 337 328 322 322 318 313 311 312 315 326 330 328 326 317 315 313 312 312 313 314 321 326 317 312 312 311 310 310 310
327 330 334 333 331 328 326 324 325 325 325 324 324 324 332 333 335 337 341 338 340 333 330 325 321 318 314 311 313 316 324 328 329 330 322 318 313 312 312 313 315 320 323 313 311 312 312 311 311
327 330 335 334 331 327 325 325 325 326 325 324 324 328 333 332 336 337 341 339 339 338 333 326 324 321 318 314 312 314 317 327 330 329 328 326 319 315 313 313 312 312 315 315 312 312 312 312 312
328 331 332 334 331 328 326 326 327 327 327 327 323 324 332 333 336 337 340 340 338 340 339 329 327 325 321 318 315 312 313 319 328 328 327 327 322 319 319 319 316 314 313 312 312 313 312 313 312
327 330 331 333 331 330 325 326 327 328 329 328 328 325 328 333 334 336 337 339 339 336 341 331 329 328 326 322 318 314 312 314 315 319 324 319 320 320 319 319 317 316 315 312 312 312 312 312 312
326 330 331 332 332 329 326 326 327 327 328 330 329 330 329 331 327 333 336 337 337 338 335 336 330 328 328 327 324 319 314 312 312 313 315 315 314 314 317 316 316 314 314 315 315 312 312 312 312
324 327 329 328 331 329 326 327 327 327 328 329 331 329 330 327 321 322 330 336 336 334 334 336 338 334 328 328 327 324 319 315 312 312 312 314 314 316 320 315 315 315 313 313 312 313 312 312 312
321 323 323 328 328 329 327 327 327 327 328 329 330 329 328 326 322 322 322 327 330 327 325 327 333 329 328 328 327 326 324 320 317 315 313 313 314 319 320 317 314 314 314 313 313 314 314 313 313
322 321 322 327 326 327 329 327 327 327 328 328 330 331 328 328 324 324 324 322 321 321 321 322 324 333 329 325 326 324 323 322 322 320 318 316 316 317 317 315 315 314 315 313 315 314 316 316 317
321 320 321 324 324 325 325 327 327 327 327 327 328 333 331 330 329 331 331 331 331 326 323 319 320 320 322 325 324 324 324 323 321 322 322 321 319 318 318 318 318 318 317 317 317 318 319 320 318
321 319 321 322 323 324 324 326 326 327 328 326 328 328 332 331 332 333 333 333 332 332 330 328 323 320 319 319 318 320 321 323 321 320 321 322 321 322 322 321 320 319 319 318 319 318 318 318 319
321 321 320 320 321 322 322 322 324 324 325 327 327 327 329 330 331 332 333 333 333 333 333 332 330 327 326 325 323 322 322 324 325 324 323 322 321 321 323 322 322 321 320 320 321 321 320 320 319
320 320 322 320 319 321 320 317 318 322 323 323 323 326 327 329 330 331 331 332 332 332 332 332 333 331 328 327 326 326 326 325 327 327 327 326 326 325 323 322 321 321 322 323 323 323 323 322 322
321 318 319 320 320 320 319 318 317 318 319 319 319 320 321 324 326 327 327 330 331 332 332 332 331 329 328 326 324 321 324 326 327 327 328 328 328 327 327 326 325 325 325 326 326 326 326 326 325
316 317 315 316 320 320 320 320 319 320 320 320 320 320 320 319 319 319 319 321 323 326 329 330 329 329 327 323 322 327 326 320 320 324 327 328 329 329 329 328 327 327 327 329 329 329 328 328 328
315 314 314 316 317 318 318 317 316 318 318 319 319 320 320 319 320 319 319 319 318 319 319 319 319 320 323 325 322 322 321 324 323 320 320 326 329 330 329 329 328 328 331 331 330 333 331 330 329
316 314 314 315 317 316 315 314 312 313 314 315 315 315 316 316 316 315 315 315 317 318 318 319 319 319 319 320 320 320 321 321 324 324 324 322 323 327 331 330 329 330 331 331 331 332 329 329 330
316 315 313 314 316 315 315 313 314 313 314 314 314 315 314 314 314 313 313 313 315 315 316 317 318 318 318 318 320 321 322 323 324 325 322 322 325 325 324 326 328 325 326 326 328 330 331 327 329
317 314 314 316 315 311 313 311 311 311 311 311 313 313 312 312 313 313 313 313 314 314 314 315 316 317 318 319 320 320 319 320 320 321 324 325 325 324 324 324 324 323 323 324 325 326 328 327 324
313 313 314 314 313 312 311 309 309 312 310 311 312 312 312 313 312 312 312 312 311 312 312 313 315 316 316 316 318 318 319 321 323 327 328 327 327 324 322 322 322 323 327 323 325 328 328 328 324
313 313 313 313 312 311 311 309 308 309 310 311 313 313 312 312 312 312 312 311 311 313 313 313 312 312 313 313 313 314 316 319 321 325 326 325 322 322 324 323 322 325 328 328 327 326 326 325 323
313 314 315 316 315 311 311 309 309 310 311 311 313 313 313 313 313 312 312 312 312 312 313 313 313 313 313 313 313 313 315 319 323 324 324 322 322 323 320 317 316 314 313 313 315 317 321 325 323
313 313 315 312 315 313 312 311 310 311 311 312 312 312 311 311 313 312 312 312 312 312 313 313 314 316 316 316 316 316 316 316 317 319 320 319 315 312 312 311 310 310 309 309 310 310 312 317 322
313 313 312 312 307 309 310 311 310 311 311 312 311 311 311 312 313 312 312 312 312 312 313 313 313 313 313 314 314 314 314 314 313 312 311 310 310 309 309 309 309 309 310 310 310 310 310 309 311
313 312 313 312 311 311 307 308 309 310 310 310 310 311 311 310 311 312 312 312 312 312 312 312 311 311 310 310 310 310 310 309 309 309 309 309 309 309 308 308 308 308 308 308 308 308 308 308 308
313 314 313 313 312 313 311 309 308 309 309 310 311 311 311 310 310 310 311 311 312 312 312 311 309 309 309 309 309 308 308 308 309 309 309 309 309 308 308 308 308 307 307 307 307 307 307 307 307
311 312 312 311 313 310 311 310 311 309 309 310 310 311 311 310 310 310 310 310 310 311 312 310 309 309 309 308 309 309 310 309 309 309 309 309 308 308 307 306 305 304 304 304 304 305 305 306 306
Wind_Speed
19 9 7 3 3 3 6 2 7 6 4 6 9 8 10 15 6 6 15 14 16 17 17 13 11 12 14 12 10 7 5 5 5 3 3 3 4 4 6 7 10 12 11 10 11 11 11 11 11
18 12 6 6 3 2 4 7 6 7 12 8 6 1 2 5 8 17 18 15 15 17 16 13 12 12 15 14 13 9 4 2 3 3 3 4 5 5 6 7 11 9 13 8 6 10 10 10 11
17 8 4 3 2 5 5 7 10 13 6 2 4 5 6 6 8 18 16 14 18 16 15 13 11 11 13 13 13 9 5 4 4 4 4 4 5 5 5 5 7 8 9 9 6 7 9 10 9
12 4 7 2 7 5 8 9 16 11 6 3 4 10 8 10 9 12 23 19 20 16 12 10 9 8 8 9 8 8 6 5 2 2 3 2 3 4 4 4 6 5 5 7 5 7 7 8 8
13 7 4 3 6 3 5 13 14 6 7 10 3 7 10 8 10 14 21 15 19 16 12 13 11 10 9 9 9 9 8 5 4 2 2 1 2 3 4 4 4 4 3 3 4 5 5 5 5
7 4 4 4 7 3 5 7 11 8 9 6 3 15 8 10 15 19 18 18 15 16 14 13 10 9 9 10 10 10 10 8 7 4 3 2 2 3 3 3 2 2 2 1 1 2 1 1 2
8 5 7 5 8 6 4 4 5 9 8 7 4 5 11 12 14 15 20 12 13 17 13 13 10 9 9 8 8 8 9 10 9 7 5 5 3 4 4 5 4 3 4 4 3 3 2 2 3
6 3 7 4 8 5 10 8 1 2 6 8 2 4 10 17 15 17 18 17 13 11 15 12 13 10 10 9 9 9 10 11 11 10 9 7 5 6 5 6 7 6 6 6 6 5 5 6 6
4 3 5 7 4 7 17 7 7 4 7 5 4 9 17 17 18 20 21 17 16 14 10 12 13 13 12 11 10 10 11 11 12 12 12 11 6 6 7 8 8 7 8 8 9 8 9 9 9
3 3 7 9 1 6 17 12 13 6 10 6 7 11 15 14 14 18 22 22 20 23 21 16 15 13 11 11 12 11 11 12 12 13 13 13 11 7 9 9 9 9 9 10 9 10 12 11 11
4 3 8 9 13 11 15 11 15 7 7 12 14 14 15 13 14 15 18 22 22 16 20 17 16 12 13 13 13 13 13 12 13 13 13 12 11 11 13 14 14 13 13 13 12 12 12 12 12
3 9 4 6 6 6 5 8 4 9 2 7 11 17 15 13 14 14 14 15 16 16 16 16 16 16 16 15 16 14 13 13 14 13 13 14 15 15 16 14 13 13 12 12 12 13 13 13 14
4 4 2 1 3 3 5 4 2 8 5 4 8 11 11 12 11 11 10 10 12 13 13 14 18 19 19 18 16 15 15 15 15 15 15 15 17 16 16 15 15 15 15 15 15 15 15 17 18
7 9 5 3 4 1 2 5 3 7 6 7 5 10 12 12 13 13 15 14 16 14 14 14 13 14 17 19 17 18 16 17 17 16 17 18 18 18 17 17 17 17 17 17 17 18 18 19 19
3 3 5 9 8 2 1 7 8 14 6 8 10 9 11 14 14 16 16 17 16 16 16 17 17 15 15 16 18 20 19 18 19 19 18 20 20 20 21 20 19 19 18 18 19 20 20 21 21
3 2 4 9 14 6 5 4 11 22 18 14 12 14 15 15 15 15 16 14 14 16 17 19 20 20 19 18 18 19 22 23 23 22 21 20 21 21 21 22 22 20 21 21 21 21 21 22 23
5 3 8 1 2 1 7 4 12 6 3 6 11 18 19 18 18 18 17 17 18 17 18 20 21 23 22 23 24 25 23 23 25 25 24 23 22 22 23 23 21 20 21 22 22 23 23 23 23
5 4 5 7 3 2 6 8 8 5 7 8 10 14 13 15 20 19 20 21 22 24 24 24 23 24 25 23 23 25 26 25 24 24 27 26 24 23 23 24 23 22 23 22 23 23 23 23 22
4 5 6 4 4 2 6 8 11 16 16 16 18 21 24 26 25 22 22 22 23 23 25 29 28 27 24 25 26 25 25 25 26 23 23 24 25 25 25 25 24 23 24 25 25 24 25 26 25
2 6 4 4 5 2 7 11 11 16 15 21 26 28 29 26 27 27 24 24 26 25 25 26 27 28 26 25 26 25 23 23 23 24 23 23 25 27 25 25 24 23 24 26 27 27 27 27 27
6 7 5 2 5 8 5 8 15 13 24 30 30 28 26 26 27 25 21 20 18 23 28 29 29 29 26 25 24 24 22 22 23 24 22 21 18 19 28 25 25 24 23 25 26 26 26 28 29
8 8 6 4 3 2 3 5 3 6 8 10 20 19 21 18 16 15 15 19 24 24 25 27 25 25 25 25 27 27 27 25 25 23 18 16 18 17 14 16 20 19 21 23 24 24 25 24 27
0 6 3 0 3 5 3 4 7 1 4 6 10 11 7 5 9 11 14 18 20 23 25 24 26 27 26 26 27 25 24 23 19 11 13 16 15 14 14 15 18 19 19 21 22 23 24 25 25
7 5 4 2 1 3 10 8 4 5 4 4 7 5 4 1 5 6 6 8 10 10 13 16 17 20 22 23 23 24 24 21 18 17 19 18 14 13 14 16 16 16 19 20 21 22 23 24 25
6 7 2 1 2 6 2 7 10 5 3 4 5 2 2 3 4 2 3 1 2 2 2 5 9 11 12 14 15 17 20 20 19 21 21 18 16 16 16 15 14 15 15 16 18 20 22 21 24
13 9 4 5 3 1 4 5 5 2 10 8 4 2 6 6 4 2 2 3 1 0 1 2 3 5 6 9 11 11 12 14 17 17 17 16 13 12 12 13 14 15 16 17 18 19 20 20 20
10 8 2 2 1 1 5 6 8 5 4 5 3 3 5 4 2 4 3 4 4 3 2 4 5 4 4 5 5 5 5 6 7 8 8 9 8 9 9 12 12 13 14 15 16 18 19 21 22
2 4 3 1 3 4 5 5 5 5 7 7 9 11 10 7 1 4 5 4 5 5 6 7 6 5 4 4 5 5 6 6 6 5 5 6 7 9 10 11 12 13 13 14 15 16 18 20 21
4 4 4 4 4 2 2 2 5 8 9 9 8 4 5 4 5 1 4 8 8 9 10 9 7 7 7 7 6 4 3 1 2 4 5 6 8 10 11 13 14 15 15 16 17 18 19 19 20
7 5 9 3 4 3 1 5 2 7 11 8 8 5 4 4 7 9 10 12 14 14 13 11 10 10 9 8 5 2 2 4 5 6 8 10 11 13 14 15 16 17 17 17 18 19 19 20 20
Wind_Direction
348 12 316 258 263 188 128 68 84 86 124 60 58 21 68 48 16 108 135 170 176 164 155 150 142 142 139 139 137 139 123 128 129 121 113 123 117 100 101 93 95 96 80 69 65 70 79 83 86
338 352 313 272 234 228 90 125 139 82 80 98 103 102 88 81 61 135 141 171 186 157 159 153 145 147 151 151 150 156 145 135 165 155 151 144 140 129 125 102 94 83 104 87 55 64 75 81 87
346 304 269 235 292 15 100 150 94 92 106 131 119 42 27 74 105 140 153 169 156 158 158 150 147 150 163 166 168 171 155 143 136 152 158 178 160 152 146 136 103 95 88 106 98 76 75 81 86
335 287 253 240 74 5 100 94 111 131 114 61 331 94 86 84 125 168 154 167 150 153 150 148 143 142 158 171 166 157 169 154 137 143 151 187 183 144 151 169 133 108 97 91 97 84 79 76 78
332 266 267 235 78 95 26 109 132 166 149 137 249 93 99 117 145 156 158 165 157 147 163 164 157 155 154 163 175 177 184 174 167 161 148 165 173 171 165 180 172 150 140 111 112 89 77 72 72
297 253 281 208 121 95 96 131 140 122 115 112 166 111 91 139 139 148 159 172 163 162 181 174 166 163 166 173 181 186 189 181 202 208 215 308 269 212 200 214 208 221 229 207 116 125 89 38 38
268 296 278 305 116 149 146 167 172 145 159 120 129 100 135 145 155 154 156 184 180 182 183 177 178 176 180 186 188 191 199 199 206 221 226 250 234 225 209 216 223 226 254 256 245 238 239 283 308
295 289 278 287 138 156 136 156 155 8 79 120 172 139 165 162 170 160 155 176 178 207 192 199 191 195 194 193 196 199 206 211 220 229 231 232 223 250 248 248 262 257 264 271 259 263 268 274 279
292 280 268 243 225 131 149 160 162 163 122 115 119 106 144 179 174 165 166 181 188 189 220 206 202 200 205 204 205 209 215 223 226 232 238 255 259 261 267 264 265 262 270 275 277 271 263 268 275
239 242 261 2 173 131 164 185 159 161 158 147 141 140 170 184 183 184 181 181 201 201 194 204 211 208 218 218 216 219 223 228 235 240 245 245 252 253 270 275 271 271 274 275 280 277 278 280 274
220 240 350 46 23 9 160 202 163 204 180 188 187 182 182 187 189 193 197 197 210 215 214 208 211 219 225 222 234 225 234 233 238 239 245 245 242 242 248 258 266 273 273 272 273 271 284 281 276
277 256 2 8 12 12 356 202 182 212 112 130 143 199 187 191 197 201 205 206 213 217 220 219 211 207 228 229 233 241 239 242 242 246 246 244 245 242 254 259 262 269 274 275 279 280 284 289 292
251 262 226 13 10 354 342 294 204 239 162 171 152 164 190 194 201 204 209 213 226 224 224 222 216 221 219 230 230 236 240 248 250 249 252 252 253 253 255 259 263 264 274 279 280 276 268 274 281
348 252 205 178 236 238 290 261 164 247 217 175 189 191 198 201 204 203 204 212 214 223 223 232 228 221 224 235 234 236 238 244 252 250 251 257 258 258 258 261 263 266 267 270 273 275 276 275 277
314 284 225 225 228 185 140 280 236 230 212 193 207 212 208 209 206 207 217 209 220 222 223 228 237 233 228 227 233 238 243 244 248 257 253 254 258 257 256 258 262 267 270 271 269 270 273 274 275
225 280 223 202 187 169 144 254 230 224 229 217 226 230 226 220 216 217 218 231 233 229 233 231 234 242 249 253 250 244 242 242 244 252 259 259 259 263 259 256 261 265 267 269 269 273 275 276 280
236 244 214 239 132 114 182 250 238 166 236 248 245 250 244 235 234 233 231 230 226 231 232 239 244 245 248 254 262 264 256 249 251 250 254 259 261 261 263 263 263 263 266 266 268 272 275 276 278
201 224 266 209 104 251 252 253 279 195 210 241 259 266 268 250 246 245 244 241 237 231 231 231 240 253 257 255 254 254 265 268 261 254 254 255 258 262 264 264 264 260 262 260 260 263 265 269 271
358 294 235 152 78 14 267 265 266 272 267 260 250 250 255 253 251 256 253 251 245 244 247 244 244 236 239 248 253 251 254 261 273 274 263 253 247 256 263 265 263 259 256 259 264 262 262 266 264
176 273 271 66 111 83 277 272 272 262 253 251 253 252 253 260 260 263 263 261 251 244 243 245 245 247 243 246 252 254 257 260 265 269 274 268 254 246 249 256 258 255 252 259 264 263 261 266 269
194 236 240 226 163 209 256 267 244 259 245 247 249 251 255 259 264 270 264 253 250 249 252 250 246 251 249 249 249 252 250 251 255 260 271 274 271 255 249 248 254 263 262 264 268 268 265 265 273
233 213 249 347 41 255 114 285 307 237 232 219 239 246 252 250 251 252 265 259 252 254 251 244 249 243 238 230 239 247 254 252 258 263 267 262 268 272 257 246 258 269 270 271 272 276 276 270 270
274 48 71 308 273 309 236 259 261 238 234 234 224 222 161 228 270 270 245 244 246 245 247 246 239 240 237 233 233 238 246 254 255 253 242 248 252 261 269 270 269 277 280 281 280 278 278 278 275
112 114 88 41 280 276 218 207 252 206 216 86 94 124 137 269 302 294 287 244 258 259 251 244 235 236 238 240 239 238 241 245 240 231 243 255 261 263 273 278 273 260 260 266 274 276 276 278 278
171 155 92 336 202 229 359 211 247 295 132 144 137 114 50 317 288 295 341 308 270 288 267 239 232 236 234 231 226 223 222 228 225 226 239 243 244 245 253 260 272 280 284 280 275 276 277 276 276
192 184 155 209 205 295 8 236 262 88 69 149 170 307 313 336 275 254 262 285 301 247 208 183 195 206 206 210 217 222 225 229 234 237 239 242 242 249 264 274 279 282 284 285 284 284 284 282 281
198 226 18 8 47 12 211 252 308 199 163 134 125 25 33 58 267 270 282 299 312 283 246 226 211 205 203 198 194 195 202 217 225 233 242 256 274 281 286 285 291 292 290 289 288 285 281 276 276
225 162 130 291 201 242 253 228 218 132 133 120 104 83 54 52 73 290 295 278 276 271 259 256 252 236 228 222 220 218 219 223 233 245 264 281 291 299 302 305 306 304 304 303 301 298 294 290 288
185 210 208 180 196 217 331 279 340 118 137 127 137 107 42 74 60 3 322 323 312 291 276 264 248 229 215 209 205 197 198 230 299 309 309 309 310 312 312 311 310 311 311 309 308 305 303 303 297
218 218 198 159 213 224 54 271 108 121 106 92 101 100 49 40 18 357 336 330 323 308 282 266 251 235 220 208 194 194 322 321 312 309 310 311 311 311 310 310 310 310 309 310 310 310 309 307 306